Regional Weather Roundup
Issued by NWS

Home | Current Version | Previous Version | Graphics & Text | Print | Product List | Glossary On
Versions: 1 2 3 4 5 6 7 8 9 10 11 12 13 14 15 16 17 18 19 20 21 22 23 24 25 26 27 28 29 30 31 32 33 34 35 36 37 38 39 40 41 42 43 44 45 46 47 48 49 50
000
ASUS43 KLSX 010110
RWRMO

WEATHER SUMMARY FOR MISSOURI
NATIONAL WEATHER SERVICE SPRINGFIELD MO
800 PM CDT FRI SEP 30 2016

NOTE: "FAIR" INDICATES FEW OR NO CLOUDS BELOW 12,000 FEET WITH NO
       SIGNIFICANT WEATHER AND/OR OBSTRUCTIONS TO VISIBILITY.
       CURRENT SKY AND/OR WEATHER CONDITIONS ARE NOT AVAILABLE FOR
       CHILLICOTHE AND FARMINGTON.

MOZ001>031-035>038-043-044-053-054-010200-
...NORTHERN AND WESTERN MISSOURI...

CITY           SKY/WX    TMP DP  RH WIND       PRES   REMARKS
KANSAS CTY INT PTCLDY    63  51  65 NE5       30.12F
KANSAS C DTWN  CLEAR     66  53  63 NE6       30.11S
LEE`S SUMMIT   CLEAR     64  53  67 N5        30.12S
ST JOSEPH      CLEAR     63  54  72 NE5       30.13S
CHILLICOTHE      N/A     64  56  75 N5        30.15F
KIRKSVILLE     CLOUDY    62  56  80 N7        30.14R

$$
MOZ066>068-077>081-088>096-101>105-010200-
...SOUTHWEST MISSOURI...

CITY           SKY/WX    TMP DP  RH WIND       PRES   REMARKS
SPRINGFIELD    CLEAR     63  53  70 CALM      30.10S
JOPLIN         CLEAR     62  55  77 CALM      30.11S
BRANSON        MOCLDY    64  54  68 CALM      30.11F

$$
MOZ032>034-039>042-045>050-055>058-069>072-010200-
...CENTRAL MISSOURI...

CITY           SKY/WX    TMP DP  RH WIND       PRES   REMARKS
COLUMBIA       CLOUDY    64  56  75 N6        30.11R
JEFFERSON CITY CLOUDY    65  56  72 N8        30.09S
ROLLA          CLOUDY    62  56  80 N8        30.08F
SEDALIA        CLEAR     62  54  74 NE6       30.12S
WHITEMAN AFB   PTCLDY    62  55  79 NE6       30.10S
OSAGE BEACH    CLOUDY    63  57  81 N5        30.11S

$$
MOZ051-052-059>065-010200-
...EAST CENTRAL MISSOURI...

CITY           SKY/WX    TMP DP  RH WIND       PRES   REMARKS
ST LOUIS INTL  MOCLDY    64  59  83 NW8       30.06S
SPIRIT OF STL  CLOUDY    65  59  81 NW6       30.06R
ST CHARLES     CLOUDY    63  61  93 NW9       30.05S

$$
MOZ072>076-082>087-097>100-106>115-010200-
...SOUTH CENTRAL AND SOUTHEAST MISSOURI...

CITY           SKY/WX    TMP DP  RH WIND       PRES   REMARKS
CAPE GIRARDEAU CLOUDY    63  59  87 W5        30.03S
FARMINGTON     CLOUDY    61  58  90 NW6       30.07S
POPLAR BLUFF   CLOUDY    64  59  83 NW6       30.05S
WEST PLAINS    CLOUDY    64  55  72 CALM      30.11S

$$



USA.gov is the U.S. government's official web portal to all federal, state and local government web resources and services.